Location: Beadle
(51.4667°N, 109.0000°W)
Time: 01:41:59
(UTC+00:00)

NANOSAT C BR1 - Visible Passes

Search period start: 26 June 2022 00:00
Search period end: 06 July 2022 00:00
Orbit: 583 x 601 km, 98.0° (Epoch: 25 June)

Date Brightness Start Highest point End Pass type
(mag) Time Alt. Az. Time Alt. Az. Time Alt. Az.
26 Jun ? 08:31:36 10° NE 08:34:48 21° E 08:38:00 10° SE visible
26 Jun ? 10:06:33 10° N 10:10:36 49° WNW 10:14:40 10° SW visible
27 Jun ? 08:40:07 10° NE 08:43:37 25° E 08:47:06 10° SSE visible
28 Jun ? 08:48:42 10° NNE 08:52:25 30° E 08:56:09 10° SSE visible
29 Jun ? 08:57:19 10° NNE 09:01:13 36° E 09:05:06 10° SSE visible
30 Jun ? 09:05:57 10° NNE 09:09:59 43° E 09:13:56 10° S visible
01 Jul ? 09:14:37 10° NNE 09:18:45 52° E 09:22:44 11° S visible
02 Jul ? 09:23:17 10° NNE 09:27:30 64° ESE 09:31:31 11° S visible
03 Jul ? 09:31:59 10° NNE 09:36:13 77° ESE 09:40:18 11° S visible
04 Jul ? 08:07:06 10° ENE 08:08:46 12° E 08:10:26 10° ESE visible
04 Jul ? 09:40:41 10° NNE 09:44:56 88° W 09:49:06 10° SSW visible
05 Jul ? 08:15:13 10° NE 08:17:36 15° E 08:19:57 10° ESE visible
05 Jul ? 09:49:25 10° N 09:53:38 73° WNW 09:57:50 10° SSW visible
